Time,TemperatureF,DewpointF,PressureIn,WindDirection,WindDirectionDegrees,WindSpeedMPH,WindSpeedGustMPH,Humidity,HourlyPrecipIn,Conditions,Clouds,dailyrainin,SoftwareType,DateUTC
2013-01-30 00:00:00,41.6,40.3,29.98,East,90,2.0,4.0,95,0.00,,---,0.00,VWS V13.01,2013-01-30 05:00:00,
2013-01-30 00:01:00,41.6,40.3,29.98,East,90,2.0,4.0,95,0.00,,---,0.00,VWS V13.01,2013-01-30 05:01:00,
2013-01-30 00:03:00,41.6,40.3,29.98,East,92,3.0,4.0,95,0.00,,---,0.00,VWS V13.01,2013-01-30 05:03:00,
2013-01-30 00:08:00,41.6,40.3,29.98,East,91,2.0,6.0,95,0.00,,---,0.00,VWS V13.01,2013-01-30 05:08:00,
2013-01-30 00:13:00,41.6,40.3,29.97,East,91,0.0,0.0,95,0.00,,---,0.00,VWS V13.01,2013-01-30 05:13:00,
2013-01-30 00:18:00,41.6,40.5,29.97,East,91,0.0,4.0,96,0.00,,---,0.00,VWS V13.01,2013-01-30 05:18:00,
2013-01-30 00:23:00,41.8,40.8,29.97,East,92,2.0,4.0,96,0.00,,---,0.00,VWS V13.01,2013-01-30 05:23:00,
2013-01-30 00:28:00,41.8,40.8,29.97,East,91,0.0,0.0,96,0.00,,---,0.00,VWS V13.01,2013-01-30 05:28:00,
2013-01-30 00:33:00,41.8,40.8,29.97,East,91,0.0,3.0,96,0.00,,---,0.00,VWS V13.01,2013-01-30 05:33:00,
2013-01-30 00:38:00,41.9,40.8,29.97,East,92,0.0,4.0,96,0.00,,---,0.00,VWS V13.01,2013-01-30 05:38:00,
2013-01-30 00:43:00,41.8,40.8,29.95,East,92,0.0,4.0,96,0.00,,---,0.00,VWS V13.01,2013-01-30 05:43:00,
2013-01-30 00:48:00,41.9,40.8,29.95,East,92,2.0,4.0,96,0.00,,---,0.00,VWS V13.01,2013-01-30 05:48:00,
2013-01-30 00:53:00,41.9,40.8,29.95,East,92,0.0,4.0,96,0.00,,---,0.00,VWS V13.01,2013-01-30 05:53:00,
2013-01-30 00:58:00,41.8,40.8,29.94,East,90,2.0,3.0,96,0.00,,---,0.00,VWS V13.01,2013-01-30 05:58:00,
2013-01-30 01:03:00,41.6,40.5,29.94,East,90,0.0,3.0,96,0.00,,---,0.00,VWS V13.01,2013-01-30 06:03:00,
2013-01-30 01:08:00,41.6,40.8,29.94,East,91,0.0,4.0,97,0.00,,---,0.00,VWS V13.01,2013-01-30 06:08:00,
2013-01-30 01:13:00,41.5,40.7,29.93,East,91,0.0,0.0,97,0.00,,---,0.00,VWS V13.01,2013-01-30 06:13:00,
2013-01-30 01:18:00,41.3,40.5,29.93,East,91,3.0,5.0,97,0.00,,---,0.00,VWS V13.01,2013-01-30 06:18:00,
2013-01-30 01:23:00,41.3,40.5,29.93,East,94,0.0,5.0,97,0.00,,---,0.00,VWS V13.01,2013-01-30 06:23:00,
2013-01-30 01:28:00,41.3,40.5,29.92,East,94,0.0,4.0,97,0.00,,---,0.00,VWS V13.01,2013-01-30 06:28:00,
2013-01-30 01:33:00,41.3,40.5,29.92,East,94,0.0,4.0,97,0.00,,---,0.00,VWS V13.01,2013-01-30 06:33:00,
2013-01-30 01:38:00,41.3,40.5,29.92,East,94,3.0,4.0,97,0.00,,---,0.00,VWS V13.01,2013-01-30 06:38:00,
2013-01-30 01:43:00,41.2,40.4,29.92,East,94,0.0,0.0,97,0.00,,---,0.00,VWS V13.01,2013-01-30 06:43:00,
2013-01-30 01:48:00,41.2,40.4,29.92,East,94,0.0,3.0,97,0.00,,---,0.00,VWS V13.01,2013-01-30 06:48:00,
2013-01-30 01:53:00,41.2,40.7,29.92,East,94,0.0,4.0,98,0.00,,---,0.00,VWS V13.01,2013-01-30 06:53:00,
2013-01-30 01:58:00,41.2,40.7,29.91,East,94,0.0,0.0,98,0.00,,---,0.00,VWS V13.01,2013-01-30 06:58:00,
2013-01-30 02:03:00,41.2,40.7,29.91,East,94,0.0,0.0,98,0.00,,---,0.00,VWS V13.01,2013-01-30 07:03:00,
2013-01-30 02:08:00,41.2,40.7,29.91,East,94,3.0,3.0,98,0.00,,---,0.00,VWS V13.01,2013-01-30 07:08:00,
2013-01-30 02:13:00,41.2,40.7,29.91,East,94,0.0,0.0,98,0.00,,---,0.00,VWS V13.01,2013-01-30 07:13:00,
2013-01-30 02:18:00,41.3,40.8,29.91,East,88,0.0,4.0,98,0.00,,---,0.00,VWS V13.01,2013-01-30 07:18:00,
2013-01-30 02:23:00,41.2,40.7,29.91,East,88,0.0,4.0,98,0.00,,---,0.00,VWS V13.01,2013-01-30 07:23:00,
2013-01-30 02:28:00,41.3,40.8,29.91,East,88,3.0,3.0,98,0.00,,---,0.00,VWS V13.01,2013-01-30 07:28:00,
2013-01-30 02:33:00,41.3,40.8,29.91,East,88,0.0,3.0,98,0.00,,---,0.00,VWS V13.01,2013-01-30 07:33:00,
2013-01-30 02:38:00,41.3,40.8,29.91,East,88,0.0,3.0,98,0.00,,---,0.00,VWS V13.01,2013-01-30 07:38:00,
2013-01-30 02:43:00,41.3,40.8,29.90,East,89,0.0,0.0,98,0.00,,---,0.00,VWS V13.01,2013-01-30 07:43:00,
2013-01-30 02:48:00,41.3,40.8,29.90,East,89,0.0,0.0,98,0.00,,---,0.00,VWS V13.01,2013-01-30 07:48:00,
2013-01-30 02:53:00,41.3,40.8,29.90,East,89,0.0,3.0,98,0.00,,---,0.00,VWS V13.01,2013-01-30 07:53:00,
2013-01-30 02:58:00,41.3,40.8,29.89,East,88,0.0,3.0,98,0.00,,---,0.00,VWS V13.01,2013-01-30 07:58:00,
2013-01-30 03:03:00,41.3,40.8,29.89,East,89,0.0,4.0,98,0.00,,---,0.00,VWS V13.01,2013-01-30 08:03:00,
2013-01-30 03:08:00,41.3,40.8,29.89,East,89,0.0,4.0,98,0.00,,---,0.00,VWS V13.01,2013-01-30 08:08:00,
2013-01-30 03:13:00,41.5,41.0,29.89,East,90,0.0,2.0,98,0.00,,---,0.00,VWS V13.01,2013-01-30 08:13:00,
2013-01-30 03:18:00,41.5,41.0,29.89,East,90,0.0,3.0,98,0.00,,---,0.00,VWS V13.01,2013-01-30 08:18:00,
2013-01-30 03:23:00,41.5,41.0,29.89,East,90,1.0,3.0,98,0.00,,---,0.00,VWS V13.01,2013-01-30 08:23:00,
2013-01-30 03:28:00,41.6,41.1,29.87,East,92,5.0,5.0,98,0.00,,---,0.00,VWS V13.01,2013-01-30 08:28:00,
2013-01-30 03:33:00,41.8,41.5,29.87,East,92,0.0,5.0,99,0.00,,---,0.00,VWS V13.01,2013-01-30 08:33:00,
2013-01-30 03:38:00,41.8,41.5,29.87,East,94,0.0,5.0,99,0.00,,---,0.00,VWS V13.01,2013-01-30 08:38:00,
2013-01-30 03:43:00,41.8,41.5,29.86,East,94,0.0,3.0,99,0.00,,---,0.00,VWS V13.01,2013-01-30 08:43:00,
2013-01-30 03:48:00,41.8,41.5,29.86,East,94,0.0,3.0,99,0.00,,---,0.00,VWS V13.01,2013-01-30 08:48:00,
2013-01-30 03:53:00,41.6,41.3,29.86,East,94,0.0,3.0,99,0.00,,---,0.00,VWS V13.01,2013-01-30 08:53:00,
2013-01-30 03:58:00,41.6,41.3,29.86,East,94,0.0,0.0,99,0.00,,---,0.00,VWS V13.01,2013-01-30 08:58:00,
2013-01-30 04:03:00,41.6,41.3,29.86,East,94,0.0,0.0,99,0.00,,---,0.00,VWS V13.01,2013-01-30 09:03:00,
2013-01-30 04:08:00,41.8,41.5,29.86,East,94,0.0,0.0,99,0.00,,---,0.00,VWS V13.01,2013-01-30 09:08:00,
2013-01-30 04:13:00,41.9,41.6,29.85,East,94,2.0,4.0,99,0.00,,---,0.00,VWS V13.01,2013-01-30 09:13:00,
2013-01-30 04:18:00,41.9,41.6,29.85,East,94,0.0,4.0,99,0.00,,---,0.00,VWS V13.01,2013-01-30 09:18:00,
2013-01-30 04:23:00,41.9,41.6,29.85,East,94,3.0,4.0,99,0.00,,---,0.00,VWS V13.01,2013-01-30 09:23:00,
2013-01-30 04:28:00,41.9,41.6,29.84,East,94,0.0,2.0,99,0.00,,---,0.00,VWS V13.01,2013-01-30 09:28:00,
2013-01-30 04:33:00,41.9,41.6,29.84,East,94,0.0,3.0,99,0.00,,---,0.00,VWS V13.01,2013-01-30 09:33:00,
2013-01-30 04:38:00,41.9,41.6,29.84,East,94,0.0,3.0,99,0.00,,---,0.00,VWS V13.01,2013-01-30 09:38:00,
2013-01-30 04:43:00,41.8,41.5,29.83,East,94,0.0,0.0,99,0.00,,---,0.00,VWS V13.01,2013-01-30 09:43:00,
2013-01-30 04:48:00,41.8,41.5,29.83,East,94,0.0,0.0,99,0.00,,---,0.00,VWS V13.01,2013-01-30 09:48:00,
2013-01-30 04:53:00,41.8,41.5,29.83,East,94,0.0,0.0,99,0.00,,---,0.00,VWS V13.01,2013-01-30 09:53:00,
2013-01-30 04:58:00,41.8,41.5,29.84,East,92,0.0,1.0,99,0.00,,---,0.00,VWS V13.01,2013-01-30 09:58:00,
2013-01-30 05:03:00,41.8,41.5,29.84,East,92,0.0,1.0,99,0.00,,---,0.00,VWS V13.01,2013-01-30 10:03:00,
2013-01-30 05:08:00,41.8,41.5,29.84,East,92,0.0,3.0,99,0.00,,---,0.00,VWS V13.01,2013-01-30 10:08:00,
2013-01-30 05:13:00,41.8,41.5,29.84,East,92,0.0,0.0,99,0.00,,---,0.00,VWS V13.01,2013-01-30 10:13:00,
2013-01-30 05:18:00,41.8,41.5,29.84,East,92,0.0,0.0,99,0.00,,---,0.00,VWS V13.01,2013-01-30 10:18:00,
2013-01-30 05:23:00,41.8,41.5,29.84,East,92,0.0,2.0,99,0.00,,---,0.00,VWS V13.01,2013-01-30 10:23:00,
2013-01-30 05:27:00,41.8,41.5,29.83,East,92,0.0,0.0,99,0.00,,---,0.00,VWS V13.01,2013-01-30 10:27:00,
2013-01-30 05:32:00,41.8,41.5,29.83,East,92,0.0,0.0,99,0.00,,---,0.00,VWS V13.01,2013-01-30 10:32:00,
2013-01-30 05:37:00,41.8,41.5,29.83,East,92,0.0,0.0,99,0.00,,---,0.00,VWS V13.01,2013-01-30 10:37:00,
2013-01-30 05:42:00,41.8,41.5,29.83,East,92,0.0,0.0,99,0.00,,---,0.00,VWS V13.01,2013-01-30 10:42:00,
2013-01-30 05:47:00,41.6,41.3,29.83,East,92,0.0,3.0,99,0.00,,---,0.00,VWS V13.01,2013-01-30 10:47:00,
2013-01-30 05:52:00,41.5,41.2,29.83,East,92,0.0,3.0,99,0.00,,---,0.00,VWS V13.01,2013-01-30 10:52:00,
2013-01-30 05:57:00,41.6,41.3,29.82,East,92,0.0,3.0,99,0.00,,---,0.00,VWS V13.01,2013-01-30 10:57:00,
2013-01-30 06:02:00,41.6,41.3,29.82,East,92,0.0,3.0,99,0.00,,---,0.00,VWS V13.01,2013-01-30 11:02:00,
2013-01-30 06:07:00,41.9,41.6,29.82,East,92,0.0,6.0,99,0.00,,---,0.00,VWS V13.01,2013-01-30 11:07:00,
2013-01-30 06:12:00,42.1,41.8,29.82,East,92,0.0,0.0,99,0.00,,---,0.00,VWS V13.01,2013-01-30 11:12:00,
2013-01-30 06:17:00,42.2,41.9,29.82,East,92,3.0,4.0,99,0.00,,---,0.00,VWS V13.01,2013-01-30 11:17:00,
2013-01-30 06:22:00,42.1,41.8,29.82,East,92,0.0,4.0,99,0.00,,---,0.00,VWS V13.01,2013-01-30 11:22:00,
2013-01-30 06:27:00,42.1,41.8,29.81,East,92,0.0,3.0,99,0.00,,---,0.00,VWS V13.01,2013-01-30 11:27:00,
2013-01-30 06:32:00,42.1,41.8,29.81,East,94,3.0,5.0,99,0.00,,---,0.00,VWS V13.01,2013-01-30 11:32:00,
2013-01-30 06:37:00,42.1,41.8,29.81,East,94,0.0,5.0,99,0.00,,---,0.00,VWS V13.01,2013-01-30 11:37:00,
2013-01-30 06:42:00,42.2,41.9,29.80,East,94,0.0,0.0,99,0.00,,---,0.00,VWS V13.01,2013-01-30 11:42:00,
2013-01-30 06:47:00,42.1,41.8,29.80,East,94,0.0,0.0,99,0.00,,---,0.00,VWS V13.01,2013-01-30 11:47:00,
2013-01-30 06:52:00,42.2,41.9,29.80,East,94,0.0,0.0,99,0.00,,---,0.00,VWS V13.01,2013-01-30 11:52:00,
2013-01-30 06:57:00,42.1,41.8,29.80,East,94,0.0,0.0,99,0.00,,---,0.00,VWS V13.01,2013-01-30 11:57:00,
2013-01-30 07:02:00,41.9,41.6,29.80,East,94,0.0,0.0,99,0.00,,---,0.00,VWS V13.01,2013-01-30 12:02:00,
2013-01-30 07:07:00,41.9,41.6,29.80,East,94,0.0,0.0,99,0.00,,---,0.00,VWS V13.01,2013-01-30 12:07:00,
2013-01-30 07:12:00,41.9,41.6,29.79,East,94,0.0,0.0,99,0.00,,---,0.00,VWS V13.01,2013-01-30 12:12:00,
2013-01-30 07:17:00,41.9,41.6,29.79,East,94,0.0,0.0,99,0.00,,---,0.00,VWS V13.01,2013-01-30 12:17:00,
2013-01-30 07:22:00,41.8,41.5,29.79,East,94,0.0,0.0,99,0.00,,---,0.00,VWS V13.01,2013-01-30 12:22:00,
2013-01-30 07:27:00,41.8,41.5,29.79,East,94,0.0,0.0,99,0.00,,---,0.00,VWS V13.01,2013-01-30 12:27:00,
2013-01-30 07:32:00,41.8,41.5,29.79,East,94,0.0,0.0,99,0.00,,---,0.00,VWS V13.01,2013-01-30 12:32:00,
2013-01-30 07:37:00,41.8,41.5,29.79,East,94,0.0,0.0,99,0.00,,---,0.00,VWS V13.01,2013-01-30 12:37:00,
2013-01-30 07:42:00,41.8,41.5,29.78,East,94,0.0,0.0,99,0.00,,---,0.00,VWS V13.01,2013-01-30 12:42:00,
2013-01-30 07:47:00,41.9,41.6,29.78,East,94,0.0,0.0,99,0.00,,---,0.00,VWS V13.01,2013-01-30 12:47:00,
2013-01-30 07:52:00,41.9,41.6,29.78,East,94,0.0,0.0,99,0.00,,---,0.00,VWS V13.01,2013-01-30 12:52:00,
2013-01-30 07:57:00,41.9,41.6,29.78,East,94,0.0,0.0,99,0.00,,---,0.00,VWS V13.01,2013-01-30 12:57:00,
2013-01-30 08:02:00,42.1,41.8,29.78,East,91,2.0,5.0,99,0.00,,---,0.00,VWS V13.01,2013-01-30 13:02:00,
2013-01-30 08:07:00,42.2,41.9,29.78,East,91,0.0,5.0,99,0.00,,---,0.00,VWS V13.01,2013-01-30 13:07:00,
2013-01-30 08:12:00,42.1,41.8,29.77,East,91,0.0,3.0,99,0.00,,---,0.00,VWS V13.01,2013-01-30 13:12:00,
2013-01-30 08:17:00,42.2,41.9,29.77,East,91,0.0,4.0,99,0.00,,---,0.00,VWS V13.01,2013-01-30 13:17:00,
2013-01-30 08:22:00,42.3,42.0,29.77,East,91,1.0,4.0,99,0.00,,---,0.00,VWS V13.01,2013-01-30 13:22:00,
2013-01-30 08:27:00,42.3,42.0,29.77,East,91,2.0,3.0,99,0.00,,---,0.00,VWS V13.01,2013-01-30 13:27:00,
2013-01-30 08:32:00,42.5,42.2,29.77,East,91,0.0,3.0,99,0.00,,---,0.00,VWS V13.01,2013-01-30 13:32:00,
2013-01-30 08:37:00,42.6,42.3,29.77,East,91,2.0,4.0,99,0.00,,---,0.00,VWS V13.01,2013-01-30 13:37:00,
2013-01-30 08:42:00,42.9,42.6,29.76,East,91,3.0,4.0,99,0.00,,---,0.00,VWS V13.01,2013-01-30 13:42:00,
2013-01-30 08:47:00,43.1,42.8,29.76,East,91,2.0,4.0,99,0.00,,---,0.00,VWS V13.01,2013-01-30 13:47:00,
2013-01-30 08:52:00,43.1,42.8,29.76,East,91,2.0,4.0,99,0.00,,---,0.00,VWS V13.01,2013-01-30 13:52:00,
2013-01-30 08:57:00,43.2,42.9,29.75,East,91,1.0,3.0,99,0.00,,---,0.00,VWS V13.01,2013-01-30 13:57:00,
2013-01-30 09:02:00,43.3,43.0,29.75,East,91,0.0,3.0,99,0.00,,---,0.00,VWS V13.01,2013-01-30 14:02:00,
2013-01-30 09:07:00,43.3,43.0,29.75,East,91,0.0,3.0,99,0.00,,---,0.00,VWS V13.01,2013-01-30 14:07:00,
2013-01-30 09:12:00,43.5,43.2,29.75,East,91,0.0,0.0,99,0.00,,---,0.00,VWS V13.01,2013-01-30 14:12:00,
2013-01-30 09:17:00,43.3,43.0,29.75,East,91,0.0,0.0,99,0.00,,---,0.00,VWS V13.01,2013-01-30 14:17:00,
2013-01-30 09:22:00,43.5,43.2,29.75,East,91,0.0,0.0,99,0.00,,---,0.00,VWS V13.01,2013-01-30 14:22:00,
2013-01-30 09:27:00,43.6,43.3,29.74,East,91,0.0,0.0,99,0.00,,---,0.00,VWS V13.01,2013-01-30 14:27:00,
2013-01-30 09:32:00,43.8,43.5,29.74,East,91,0.0,0.0,99,0.00,,---,0.00,VWS V13.01,2013-01-30 14:32:00,
2013-01-30 09:37:00,44.1,43.8,29.74,East,91,0.0,0.0,99,0.00,,---,0.00,VWS V13.01,2013-01-30 14:37:00,
2013-01-30 09:42:00,44.5,44.2,29.73,East,91,0.0,0.0,99,0.00,,---,0.00,VWS V13.01,2013-01-30 14:42:00,
2013-01-30 09:47:00,44.6,44.3,29.73,East,91,0.0,0.0,99,0.00,,---,0.00,VWS V13.01,2013-01-30 14:47:00,
2013-01-30 09:52:00,44.9,44.9,29.73,East,91,0.0,0.0,100,0.00,,---,0.00,VWS V13.01,2013-01-30 14:52:00,
2013-01-30 09:57:00,44.9,44.9,29.73,East,91,0.0,0.0,100,0.00,,---,0.00,VWS V13.01,2013-01-30 14:57:00,
2013-01-30 10:02:00,44.9,44.9,29.73,East,91,0.0,0.0,100,0.00,,---,0.00,VWS V13.01,2013-01-30 15:02:00,
2013-01-30 10:07:00,44.9,44.9,29.73,East,91,0.0,0.0,100,0.00,,---,0.00,VWS V13.01,2013-01-30 15:07:00,
2013-01-30 10:12:00,45.2,45.2,29.72,East,91,0.0,0.0,100,0.00,,---,0.00,VWS V13.01,2013-01-30 15:12:00,
2013-01-30 10:17:00,45.4,45.4,29.72,East,91,0.0,0.0,100,0.00,,---,0.00,VWS V13.01,2013-01-30 15:17:00,
2013-01-30 10:22:00,45.7,45.7,29.72,East,91,0.0,0.0,100,0.00,,---,0.00,VWS V13.01,2013-01-30 15:22:00,
2013-01-30 10:27:00,46.0,46.0,29.71,East,91,0.0,0.0,100,0.00,,---,0.00,VWS V13.01,2013-01-30 15:27:00,
2013-01-30 10:32:00,46.2,46.2,29.71,East,91,0.0,0.0,100,0.00,,---,0.00,VWS V13.01,2013-01-30 15:32:00,
2013-01-30 10:37:00,46.5,46.5,29.71,East,91,2.0,3.0,100,0.00,,---,0.00,VWS V13.01,2013-01-30 15:37:00,
2013-01-30 10:42:00,46.5,46.5,29.71,East,91,0.0,2.0,100,0.00,,---,0.00,VWS V13.01,2013-01-30 15:42:00,
2013-01-30 10:48:00,46.7,46.7,29.71,East,91,0.0,2.0,100,0.00,,---,0.00,VWS V13.01,2013-01-30 15:48:00,
2013-01-30 10:53:00,46.8,46.8,29.71,East,91,0.0,2.0,100,0.00,,---,0.00,VWS V13.01,2013-01-30 15:53:00,
2013-01-30 10:58:00,47.0,47.0,29.70,East,91,0.0,0.0,100,0.00,,---,0.00,VWS V13.01,2013-01-30 15:58:00,
2013-01-30 11:03:00,47.3,47.3,29.70,East,91,0.0,0.0,100,0.00,,---,0.00,VWS V13.01,2013-01-30 16:03:00,
2013-01-30 11:08:00,47.7,47.7,29.70,East,91,0.0,0.0,100,0.00,,---,0.00,VWS V13.01,2013-01-30 16:08:00,
2013-01-30 11:13:00,48.0,48.0,29.68,East,91,0.0,0.0,100,0.00,,---,0.00,VWS V13.01,2013-01-30 16:13:00,
2013-01-30 11:18:00,48.5,48.5,29.68,East,91,0.0,0.0,100,0.00,,---,0.00,VWS V13.01,2013-01-30 16:18:00,
2013-01-30 11:23:00,49.2,49.2,29.68,East,91,0.0,0.0,100,0.00,,---,0.00,VWS V13.01,2013-01-30 16:23:00,
2013-01-30 11:28:00,49.8,49.8,29.67,East,91,0.0,0.0,100,0.00,,---,0.00,VWS V13.01,2013-01-30 16:28:00,
2013-01-30 11:33:00,50.8,50.8,29.67,East,91,0.0,0.0,100,0.00,,---,0.00,VWS V13.01,2013-01-30 16:33:00,
2013-01-30 11:38:00,51.1,51.1,29.67,East,91,0.0,0.0,100,0.00,,---,0.00,VWS V13.01,2013-01-30 16:38:00,
2013-01-30 11:43:00,51.4,51.4,29.65,East,91,0.0,0.0,100,0.00,,---,0.00,VWS V13.01,2013-01-30 16:43:00,
2013-01-30 11:48:00,51.6,51.6,29.65,East,91,0.0,3.0,100,0.00,,---,0.00,VWS V13.01,2013-01-30 16:48:00,
2013-01-30 11:53:00,51.0,51.0,29.65,East,91,0.0,3.0,100,0.00,,---,0.00,VWS V13.01,2013-01-30 16:53:00,
2013-01-30 11:58:00,51.6,51.6,29.64,SW,219,2.0,7.0,100,0.00,,---,0.00,VWS V13.01,2013-01-30 16:58:00,
2013-01-30 12:03:00,56.2,56.2,29.64,WSW,241,2.0,16.0,100,0.00,,---,0.00,VWS V13.01,2013-01-30 17:03:00,
2013-01-30 12:08:00,58.0,58.0,29.64,SSW,209,3.0,21.0,100,0.00,,---,0.00,VWS V13.01,2013-01-30 17:08:00,
2013-01-30 12:13:00,58.3,58.3,29.62,SW,214,12.0,15.0,100,0.00,,---,0.00,VWS V13.01,2013-01-30 17:13:00,
2013-01-30 12:18:00,58.6,58.6,29.62,SW,215,10.0,20.0,100,0.00,,---,0.00,VWS V13.01,2013-01-30 17:18:00,
2013-01-30 12:23:00,58.9,58.9,29.62,WSW,248,11.0,22.0,100,0.00,,---,0.00,VWS V13.01,2013-01-30 17:23:00,
2013-01-30 12:28:00,59.0,59.0,29.62,SW,226,12.0,17.0,100,0.00,,---,0.00,VWS V13.01,2013-01-30 17:28:00,
2013-01-30 12:33:00,59.2,59.2,29.62,SW,223,9.0,17.0,100,0.00,,---,0.00,VWS V13.01,2013-01-30 17:33:00,
2013-01-30 12:38:00,59.3,59.3,29.62,SW,221,9.0,17.0,100,0.00,,---,0.00,VWS V13.01,2013-01-30 17:38:00,
2013-01-30 12:43:00,59.5,59.2,29.60,SSW,211,4.0,11.0,99,0.00,,---,0.00,VWS V13.01,2013-01-30 17:43:00,
2013-01-30 12:48:00,59.6,59.0,29.60,SW,219,11.0,11.0,98,0.00,,---,0.00,VWS V13.01,2013-01-30 17:48:00,
2013-01-30 12:53:00,59.9,59.0,29.60,SSW,198,0.0,14.0,97,0.00,,---,0.00,VWS V13.01,2013-01-30 17:53:00,
2013-01-30 12:58:00,60.2,59.1,29.58,West,274,3.0,15.0,96,0.00,,---,0.00,VWS V13.01,2013-01-30 17:58:00,
2013-01-30 13:03:00,60.7,58.7,29.58,SSW,209,11.0,15.0,93,0.00,,---,0.00,VWS V13.01,2013-01-30 18:03:00,
2013-01-30 13:08:00,61.3,58.3,29.58,SW,219,10.0,18.0,90,0.00,,---,0.00,VWS V13.01,2013-01-30 18:08:00,
2013-01-30 13:13:00,61.8,58.2,29.57,WSW,250,12.0,18.0,88,0.00,,---,0.00,VWS V13.01,2013-01-30 18:13:00,
2013-01-30 13:18:00,62.3,58.1,29.57,SW,236,8.0,19.0,86,0.00,,---,0.00,VWS V13.01,2013-01-30 18:18:00,
2013-01-30 13:23:00,62.7,57.8,29.57,SW,223,5.0,20.0,84,0.00,,---,0.00,VWS V13.01,2013-01-30 18:23:00,
2013-01-30 13:28:00,63.1,58.2,29.56,SW,234,12.0,16.0,84,0.00,,---,0.00,VWS V13.01,2013-01-30 18:28:00,
2013-01-30 13:33:00,63.4,57.8,29.56,SW,227,10.0,20.0,82,0.00,,---,0.00,VWS V13.01,2013-01-30 18:33:00,
2013-01-30 13:38:00,63.7,57.8,29.56,SW,221,9.0,20.0,81,0.00,,---,0.00,VWS V13.01,2013-01-30 18:38:00,
2013-01-30 13:43:00,64.0,58.1,29.54,SW,221,6.0,21.0,81,0.00,,---,0.00,VWS V13.01,2013-01-30 18:43:00,
2013-01-30 13:48:00,64.2,57.9,29.54,SW,234,3.0,21.0,80,0.00,,---,0.00,VWS V13.01,2013-01-30 18:48:00,
2013-01-30 13:53:00,64.0,57.7,29.54,SW,215,7.0,21.0,80,0.00,,---,0.00,VWS V13.01,2013-01-30 18:53:00,
2013-01-30 13:58:00,64.2,57.9,29.53,SW,216,9.0,16.0,80,0.00,,---,0.00,VWS V13.01,2013-01-30 18:58:00,
2013-01-30 14:03:00,64.2,57.9,29.53,SW,226,5.0,21.0,80,0.00,,---,0.00,VWS V13.01,2013-01-30 19:03:00,
2013-01-30 14:08:00,64.2,57.9,29.53,WNW,284,6.0,21.0,80,0.00,,---,0.00,VWS V13.01,2013-01-30 19:08:00,
2013-01-30 14:13:00,64.5,58.2,29.51,SW,219,14.0,21.0,80,0.00,,---,0.00,VWS V13.01,2013-01-30 19:13:00,
2013-01-30 14:18:00,64.8,58.1,29.51,WSW,244,8.0,21.0,79,0.00,,---,0.00,VWS V13.01,2013-01-30 19:18:00,
2013-01-30 14:23:00,65.0,58.3,29.51,SSW,206,11.0,21.0,79,0.00,,---,0.00,VWS V13.01,2013-01-30 19:23:00,
2013-01-30 14:28:00,65.2,58.5,29.52,SW,236,5.0,21.0,79,0.00,,---,0.00,VWS V13.01,2013-01-30 19:28:00,
2013-01-30 14:33:00,65.3,58.3,29.52,WNW,295,2.0,21.0,78,0.00,,---,0.00,VWS V13.01,2013-01-30 19:33:00,
2013-01-30 14:38:00,65.3,58.3,29.52,SW,221,12.0,21.0,78,0.00,,---,0.00,VWS V13.01,2013-01-30 19:38:00,
2013-01-30 14:43:00,65.3,58.3,29.51,SSW,210,18.0,18.0,78,0.00,,---,0.00,VWS V13.01,2013-01-30 19:43:00,
2013-01-30 14:48:00,65.3,57.9,29.51,SSW,212,7.0,24.0,77,0.00,,---,0.00,VWS V13.01,2013-01-30 19:48:00,
2013-01-30 14:53:00,65.3,58.3,29.51,SSW,196,29.0,29.0,78,0.00,,---,0.00,VWS V13.01,2013-01-30 19:53:00,
2013-01-30 14:58:00,65.5,58.1,29.51,West,260,11.0,25.0,77,0.00,,---,0.00,VWS V13.01,2013-01-30 19:58:00,
2013-01-30 15:03:00,65.6,58.2,29.51,North,5,5.0,29.0,77,0.00,,---,0.00,VWS V13.01,2013-01-30 20:03:00,
2013-01-30 15:08:00,65.6,58.2,29.51,WSW,258,10.0,29.0,77,0.00,,---,0.00,VWS V13.01,2013-01-30 20:08:00,
2013-01-30 15:13:00,65.6,58.2,29.51,West,263,0.0,15.0,77,0.00,,---,0.00,VWS V13.01,2013-01-30 20:13:00,
2013-01-30 15:18:00,65.5,58.1,29.51,SW,230,5.0,20.0,77,0.00,,---,0.00,VWS V13.01,2013-01-30 20:18:00,
2013-01-30 15:23:00,65.6,58.2,29.51,North,360,5.0,22.0,77,0.00,,---,0.00,VWS V13.01,2013-01-30 20:23:00,
2013-01-30 15:28:00,65.8,58.0,29.50,SSW,202,5.0,10.0,76,0.00,,---,0.00,VWS V13.01,2013-01-30 20:28:00,
2013-01-30 15:33:00,65.6,57.8,29.50,SW,219,9.0,15.0,76,0.00,,---,0.00,VWS V13.01,2013-01-30 20:33:00,
2013-01-30 15:38:00,65.6,57.8,29.50,SW,236,11.0,19.0,76,0.00,,---,0.00,VWS V13.01,2013-01-30 20:38:00,
2013-01-30 15:43:00,65.8,58.0,29.51,SW,219,13.0,14.0,76,0.00,,---,0.00,VWS V13.01,2013-01-30 20:43:00,
2013-01-30 15:48:00,65.8,58.0,29.51,SW,228,4.0,16.0,76,0.00,,---,0.00,VWS V13.01,2013-01-30 20:48:00,
2013-01-30 15:53:00,66.0,57.9,29.51,SSW,213,5.0,19.0,75,0.00,,---,0.00,VWS V13.01,2013-01-30 20:53:00,
2013-01-30 15:58:00,66.0,57.9,29.49,WSW,237,12.0,14.0,75,0.00,,---,0.00,VWS V13.01,2013-01-30 20:58:00,
2013-01-30 16:03:00,66.1,58.0,29.49,SW,227,7.0,22.0,75,0.00,,---,0.00,VWS V13.01,2013-01-30 21:03:00,
2013-01-30 16:08:00,66.1,58.0,29.49,SW,232,14.0,22.0,75,0.00,,---,0.00,VWS V13.01,2013-01-30 21:08:00,
2013-01-30 16:13:00,66.3,57.8,29.48,SSW,193,4.0,28.0,74,0.00,,---,0.00,VWS V13.01,2013-01-30 21:13:00,
2013-01-30 16:18:00,66.3,57.8,29.48,SW,227,14.0,28.0,74,0.00,,---,0.00,VWS V13.01,2013-01-30 21:18:00,
2013-01-30 16:23:00,66.4,57.5,29.48,WSW,250,4.0,28.0,73,0.00,,---,0.00,VWS V13.01,2013-01-30 21:23:00,
2013-01-30 16:28:00,66.4,57.9,29.48,SW,215,6.0,16.0,74,0.00,,---,0.00,VWS V13.01,2013-01-30 21:28:00,
2013-01-30 16:33:00,66.4,57.9,29.48,SW,225,14.0,22.0,74,0.00,,---,0.00,VWS V13.01,2013-01-30 21:33:00,
2013-01-30 16:38:00,66.3,57.8,29.48,SSW,207,1.0,22.0,74,0.00,,---,0.00,VWS V13.01,2013-01-30 21:38:00,
2013-01-30 16:43:00,66.4,57.5,29.48,SSW,200,11.0,21.0,73,0.00,,---,0.00,VWS V13.01,2013-01-30 21:43:00,
2013-01-30 16:48:00,66.4,57.5,29.48,SW,221,9.0,21.0,73,0.00,,---,0.00,VWS V13.01,2013-01-30 21:48:00,
2013-01-30 16:53:00,66.4,57.5,29.48,SSW,207,1.0,21.0,73,0.00,,---,0.00,VWS V13.01,2013-01-30 21:53:00,
2013-01-30 16:58:00,66.4,57.5,29.48,SSW,198,14.0,16.0,73,0.00,,---,0.00,VWS V13.01,2013-01-30 21:58:00,
2013-01-30 17:03:00,66.4,57.5,29.48,SW,219,10.0,20.0,73,0.00,,---,0.00,VWS V13.01,2013-01-30 22:03:00,
2013-01-30 17:08:00,66.4,57.5,29.48,SW,229,12.0,20.0,73,0.00,,---,0.00,VWS V13.01,2013-01-30 22:08:00,
2013-01-30 17:13:00,66.4,57.5,29.48,NW,319,2.0,12.0,73,0.00,,---,0.00,VWS V13.01,2013-01-30 22:13:00,
2013-01-30 17:18:00,66.4,57.5,29.48,WNW,292,0.0,14.0,73,0.00,,---,0.00,VWS V13.01,2013-01-30 22:18:00,
2013-01-30 17:23:00,66.1,58.0,29.48,West,263,3.0,17.0,75,0.00,,---,0.00,VWS V13.01,2013-01-30 22:23:00,
2013-01-30 17:28:00,66.0,58.2,29.48,WNW,285,6.0,12.0,76,0.00,,---,0.00,VWS V13.01,2013-01-30 22:28:00,
2013-01-30 17:33:00,65.6,57.8,29.48,NW,309,6.0,15.0,76,0.00,,---,0.00,VWS V13.01,2013-01-30 22:33:00,
2013-01-30 17:38:00,64.7,58.4,29.48,WNW,301,4.0,15.0,80,0.00,,---,0.00,VWS V13.01,2013-01-30 22:38:00,
2013-01-30 17:43:00,63.1,57.9,29.51,NNW,337,5.0,11.0,83,0.00,,---,0.00,VWS V13.01,2013-01-30 22:43:00,
2013-01-30 17:48:00,61.6,57.4,29.51,NNW,345,2.0,11.0,86,0.00,,---,0.00,VWS V13.01,2013-01-30 22:48:00,
2013-01-30 17:53:00,60.9,57.0,29.51,NNW,337,1.0,11.0,87,0.00,,---,0.00,VWS V13.01,2013-01-30 22:53:00,
2013-01-30 17:58:00,60.4,56.8,29.51,NNW,336,0.0,0.0,88,0.00,,---,0.00,VWS V13.01,2013-01-30 22:58:00,
2013-01-30 18:03:00,60.1,56.8,29.51,NNW,336,0.0,0.0,89,0.00,,---,0.00,VWS V13.01,2013-01-30 23:03:00,
2013-01-30 18:08:00,59.8,56.9,29.51,NNW,336,0.0,0.0,90,0.00,,---,0.00,VWS V13.01,2013-01-30 23:08:00,
2013-01-30 18:13:00,59.6,56.7,29.50,NNW,336,0.0,0.0,90,0.00,,---,0.00,VWS V13.01,2013-01-30 23:13:00,
2013-01-30 18:18:00,59.3,56.7,29.50,NNW,336,0.0,0.0,91,0.00,,---,0.00,VWS V13.01,2013-01-30 23:18:00,
2013-01-30 18:23:00,59.0,56.4,29.50,NNW,336,0.0,0.0,91,0.00,,---,0.00,VWS V13.01,2013-01-30 23:23:00,
2013-01-30 18:28:00,58.7,56.4,29.50,NNW,336,0.0,0.0,92,0.00,,---,0.00,VWS V13.01,2013-01-30 23:28:00,
2013-01-30 18:33:00,58.3,56.0,29.50,NNW,336,0.0,0.0,92,0.00,,---,0.00,VWS V13.01,2013-01-30 23:33:00,
2013-01-30 18:38:00,58.1,56.1,29.50,NNW,336,0.0,0.0,93,0.00,,---,0.00,VWS V13.01,2013-01-30 23:38:00,
2013-01-30 18:43:00,58.1,56.4,29.50,NNW,336,0.0,0.0,94,0.00,,---,0.00,VWS V13.01,2013-01-30 23:43:00,
2013-01-30 18:48:00,58.3,56.6,29.50,NNW,336,0.0,0.0,94,0.00,,---,0.00,VWS V13.01,2013-01-30 23:48:00,
2013-01-30 18:53:00,58.3,56.9,29.50,NNE,28,0.0,0.0,95,0.00,,---,0.00,VWS V13.01,2013-01-30 23:53:00,
2013-01-30 18:58:00,58.1,56.7,29.48,SW,230,0.0,6.0,95,0.00,,---,0.00,VWS V13.01,2013-01-30 23:58:00,
2013-01-30 19:03:00,58.0,56.6,29.48,SSW,213,0.0,6.0,95,0.00,,---,0.00,VWS V13.01,2013-01-31 00:03:00,
2013-01-30 19:08:00,57.8,56.7,29.48,SSW,213,0.0,6.0,96,0.00,,---,0.00,VWS V13.01,2013-01-31 00:08:00,
2013-01-30 19:13:00,57.6,56.5,29.48,SSW,213,0.0,0.0,96,0.00,,---,0.00,VWS V13.01,2013-01-31 00:13:00,
2013-01-30 19:18:00,57.6,56.5,29.48,SSW,213,0.0,0.0,96,0.00,,---,0.00,VWS V13.01,2013-01-31 00:18:00,
2013-01-30 19:23:00,57.6,56.5,29.48,SSW,213,0.0,0.0,96,0.00,,---,0.00,VWS V13.01,2013-01-31 00:23:00,
2013-01-30 19:28:00,57.8,56.7,29.48,SSW,213,0.0,0.0,96,0.00,,---,0.00,VWS V13.01,2013-01-31 00:28:00,
2013-01-30 19:33:00,57.8,56.7,29.48,SW,227,0.0,0.0,96,0.00,,---,0.00,VWS V13.01,2013-01-31 00:33:00,
2013-01-30 19:38:00,57.6,56.5,29.48,SW,227,0.0,0.0,96,0.00,,---,0.00,VWS V13.01,2013-01-31 00:38:00,
2013-01-30 19:43:00,57.5,56.4,29.47,SW,227,0.0,0.0,96,0.00,,---,0.00,VWS V13.01,2013-01-31 00:43:00,
2013-01-30 19:48:00,57.2,56.1,29.47,SW,227,0.0,0.0,96,0.00,,---,0.00,VWS V13.01,2013-01-31 00:48:00,
2013-01-30 19:53:00,57.3,56.5,29.47,SW,227,0.0,0.0,97,0.00,,---,0.00,VWS V13.01,2013-01-31 00:53:00,
2013-01-30 19:58:00,57.2,56.1,29.45,SW,227,0.0,0.0,96,0.00,,---,0.00,VWS V13.01,2013-01-31 00:58:00,
2013-01-30 20:03:00,57.0,56.2,29.45,SW,227,0.0,0.0,97,0.00,,---,0.00,VWS V13.01,2013-01-31 01:03:00,
2013-01-30 20:08:00,56.5,55.4,29.45,SW,225,0.0,0.0,96,0.00,,---,0.00,VWS V13.01,2013-01-31 01:08:00,
2013-01-30 20:13:00,56.5,55.7,29.45,SW,226,0.0,0.0,97,0.00,,---,0.00,VWS V13.01,2013-01-31 01:13:00,
2013-01-30 20:18:00,56.3,55.5,29.45,SW,226,0.0,0.0,97,0.00,,---,0.00,VWS V13.01,2013-01-31 01:18:00,
2013-01-30 20:23:00,56.2,55.4,29.45,SW,226,0.0,0.0,97,0.00,,---,0.00,VWS V13.01,2013-01-31 01:23:00,
2013-01-30 20:28:00,56.0,55.2,29.43,SW,226,0.0,0.0,97,0.00,,---,0.00,VWS V13.01,2013-01-31 01:28:00,
2013-01-30 20:33:00,56.3,55.5,29.43,SW,226,0.0,0.0,97,0.00,,---,0.00,VWS V13.01,2013-01-31 01:33:00,
2013-01-30 20:38:00,56.3,55.5,29.43,SW,226,0.0,0.0,97,0.00,,---,0.00,VWS V13.01,2013-01-31 01:38:00,
2013-01-30 20:43:00,55.7,54.9,29.43,SW,226,0.0,0.0,97,0.00,,---,0.00,VWS V13.01,2013-01-31 01:43:00,
2013-01-30 20:48:00,55.9,55.1,29.43,SW,226,0.0,0.0,97,0.00,,---,0.00,VWS V13.01,2013-01-31 01:48:00,
2013-01-30 20:53:00,55.6,54.8,29.43,SW,226,0.0,0.0,97,0.00,,---,0.00,VWS V13.01,2013-01-31 01:53:00,
2013-01-30 20:58:00,55.6,55.0,29.41,SW,226,0.0,0.0,98,0.00,,---,0.00,VWS V13.01,2013-01-31 01:58:00,
2013-01-30 21:03:00,55.6,55.0,29.41,SW,226,0.0,0.0,98,0.00,,---,0.00,VWS V13.01,2013-01-31 02:03:00,
2013-01-30 21:08:00,55.7,55.2,29.41,SW,226,0.0,0.0,98,0.00,,---,0.00,VWS V13.01,2013-01-31 02:08:00,
2013-01-30 21:13:00,55.4,54.8,29.40,SW,226,0.0,0.0,98,0.00,,---,0.00,VWS V13.01,2013-01-31 02:13:00,
2013-01-30 21:18:00,55.9,55.3,29.40,East,98,0.0,4.0,98,0.00,,---,0.00,VWS V13.01,2013-01-31 02:18:00,
2013-01-30 21:23:00,55.6,55.0,29.40,East,98,0.0,4.0,98,0.00,,---,0.00,VWS V13.01,2013-01-31 02:23:00,
2013-01-30 21:28:00,55.9,55.3,29.38,East,98,0.0,3.0,98,0.00,,---,0.00,VWS V13.01,2013-01-31 02:28:00,
2013-01-30 21:33:00,55.7,55.2,29.38,East,98,0.0,3.0,98,0.00,,---,0.00,VWS V13.01,2013-01-31 02:33:00,
2013-01-30 21:38:00,55.7,55.2,29.38,East,98,0.0,3.0,98,0.00,,---,0.00,VWS V13.01,2013-01-31 02:38:00,
2013-01-30 21:43:00,55.9,55.3,29.36,East,98,0.0,0.0,98,0.00,,---,0.00,VWS V13.01,2013-01-31 02:43:00,
2013-01-30 21:48:00,56.0,55.7,29.36,East,98,0.0,0.0,99,0.00,,---,0.00,VWS V13.01,2013-01-31 02:48:00,
2013-01-30 21:53:00,56.7,56.4,29.36,SSW,193,0.0,6.0,99,0.00,,---,0.00,VWS V13.01,2013-01-31 02:53:00,
2013-01-30 21:58:00,57.2,56.9,29.35,SW,232,0.0,6.0,99,0.00,,---,0.00,VWS V13.01,2013-01-31 02:58:00,
2013-01-30 22:03:00,57.3,57.0,29.35,SSW,202,0.0,6.0,99,0.00,,---,0.00,VWS V13.01,2013-01-31 03:03:00,
2013-01-30 22:08:00,57.3,57.0,29.35,SW,218,0.0,6.0,99,0.00,,---,0.00,VWS V13.01,2013-01-31 03:08:00,
2013-01-30 22:13:00,57.3,57.0,29.32,SW,215,4.0,5.0,99,0.00,,---,0.00,VWS V13.01,2013-01-31 03:13:00,
2013-01-30 22:18:00,58.1,57.8,29.32,SSW,201,4.0,12.0,99,0.00,,---,0.00,VWS V13.01,2013-01-31 03:18:00,
2013-01-30 22:23:00,59.0,58.4,29.32,South,177,14.0,20.0,98,0.00,,---,0.00,VWS V13.01,2013-01-31 03:23:00,
2013-01-30 22:28:00,59.6,58.5,29.31,SW,215,13.0,19.0,96,0.00,,---,0.00,VWS V13.01,2013-01-31 03:28:00,
2013-01-30 22:33:00,60.2,58.2,29.31,SW,223,11.0,19.0,93,0.00,,---,0.00,VWS V13.01,2013-01-31 03:33:00,
2013-01-30 22:38:00,60.5,58.2,29.31,South,182,13.0,19.0,92,0.00,,---,0.00,VWS V13.01,2013-01-31 03:38:00,
2013-01-30 22:43:00,61.0,58.0,29.30,SSW,198,10.0,18.0,90,0.00,,---,0.00,VWS V13.01,2013-01-31 03:43:00,
2013-01-30 22:48:00,61.0,58.0,29.30,SW,219,0.0,18.0,90,0.00,,---,0.00,VWS V13.01,2013-01-31 03:48:00,
2013-01-30 22:53:00,61.2,57.9,29.30,WSW,242,9.0,18.0,89,0.00,,---,0.00,VWS V13.01,2013-01-31 03:53:00,
2013-01-30 22:58:00,61.0,58.0,29.31,NW,309,3.0,10.0,90,0.00,,---,0.00,VWS V13.01,2013-01-31 03:58:00,
2013-01-30 23:03:00,60.5,57.9,29.31,WNW,300,6.0,12.0,91,0.00,,---,0.00,VWS V13.01,2013-01-31 04:03:00,
2013-01-30 23:08:00,60.1,57.8,29.31,West,270,3.0,14.0,92,0.00,,---,0.00,VWS V13.01,2013-01-31 04:08:00,
2013-01-30 23:13:00,59.9,57.9,29.29,SW,236,0.0,11.0,93,0.00,,---,0.00,VWS V13.01,2013-01-31 04:13:00,
2013-01-30 23:18:00,59.8,58.1,29.29,West,271,3.0,11.0,94,0.00,,---,0.00,VWS V13.01,2013-01-31 04:18:00,
2013-01-30 23:23:00,59.6,57.9,29.29,SSW,210,9.0,15.0,94,0.00,,---,0.00,VWS V13.01,2013-01-31 04:23:00,
2013-01-30 23:28:00,59.6,57.9,29.27,SW,225,4.0,6.0,94,0.00,,---,0.00,VWS V13.01,2013-01-31 04:28:00,
2013-01-30 23:33:00,59.5,57.8,29.27,WSW,250,3.0,11.0,94,0.00,,---,0.00,VWS V13.01,2013-01-31 04:33:00,
2013-01-30 23:38:00,59.3,57.9,29.27,SW,235,0.0,11.0,95,0.00,,---,0.00,VWS V13.01,2013-01-31 04:38:00,
2013-01-30 23:43:00,59.2,57.8,29.26,SW,221,0.0,2.0,95,0.01,,---,0.01,VWS V13.01,2013-01-31 04:43:00,
2013-01-30 23:48:00,58.9,57.8,29.26,SW,228,3.0,7.0,96,0.03,,---,0.03,VWS V13.01,2013-01-31 04:48:00,
2013-01-30 23:53:00,58.7,57.6,29.26,SW,223,0.0,7.0,96,0.05,,---,0.05,VWS V13.01,2013-01-31 04:53:00,
2013-01-30 23:58:00,58.6,57.5,29.24,SW,223,6.0,10.0,96,0.06,,---,0.06,VWS V13.01,2013-01-31 04:58:00,